Theta_e
327 327 327 327 326 326 326 325 325 327 326 323 322 323 322 322 323 322 321 322 325 329 330 328 327 327 327 329 331 331 331 331 331 330 330 327 323 321 317 314 314 318 323 325 323 320 315 315 315 311 308 308 307 306 306 306 306 305 305 305 304 304 304 304 304 304 304 305 305 305 305 305 306 306 307 307 307 307 307 308 308 308 308 308 308
328 327 327 328 327 326 327 326 326 327 327 326 326 326 326 326 326 324 323 323 324 326 327 327 326 326 327 329 331 331 331 331 330 330 329 327 324 320 316 314 314 316 320 322 324 321 315 317 321 318 310 308 309 307 307 307 306 306 306 305 305 304 304 303 303 304 304 304 304 304 305 305 305 306 306 306 307 307 307 308 308 308 308 309 309
328 328 327 328 327 325 326 326 326 326 327 327 327 327 328 329 328 327 327 326 325 325 325 325 324 325 327 330 331 331 332 331 330 330 329 327 325 321 317 315 313 314 318 320 323 321 316 317 320 320 314 310 311 310 310 309 308 307 307 308 308 308 306 305 304 304 303 303 303 304 304 304 304 305 305 306 306 306 307 307 308 308 308 309 309
328 328 327 327 328 326 326 326 326 326 326 327 328 328 328 329 330 329 329 328 328 328 327 326 325 327 330 331 331 331 331 330 330 330 329 328 325 322 319 317 314 314 316 319 321 319 317 319 318 319 318 313 312 312 312 311 310 310 311 313 313 313 311 309 307 305 304 303 303 303 303 303 303 304 304 305 305 306 306 307 307 308 308 308 309
329 328 327 327 327 326 326 326 326 326 325 327 329 329 329 329 330 330 330 329 329 329 328 328 328 329 331 331 330 331 330 330 330 329 329 328 325 323 321 319 317 316 316 318 320 318 319 323 322 321 321 319 317 316 316 316 316 317 318 319 318 317 315 314 312 310 307 304 303 302 302 303 303 303 303 303 304 304 305 306 307 308 308 309 309
328 328 328 327 326 326 326 325 325 326 326 327 328 328 329 329 329 329 329 329 329 328 328 328 329 330 331 330 330 330 330 329 329 329 329 328 326 325 324 323 321 319 319 319 320 321 323 325 324 324 324 324 324 323 323 323 324 325 325 325 325 323 320 319 318 317 314 311 308 305 303 302 302 302 302 302 302 303 304 306 307 308 308 308 309
326 327 328 329 327 326 326 325 325 326 326 327 328 327 327 328 328 329 328 328 328 327 327 328 329 330 330 330 329 329 329 329 329 329 329 328 327 327 325 325 324 322 323 323 322 323 325 325 325 325 325 326 326 326 326 326 327 328 328 329 328 327 325 323 322 321 320 319 316 312 309 307 306 305 304 304 304 304 305 306 308 308 308 308 308
325 326 327 328 327 326 326 326 326 326 326 327 327 326 326 327 327 328 328 327 327 326 327 328 329 329 329 329 329 329 328 327 327 327 328 327 326 326 325 325 325 325 324 324 324 325 325 326 326 326 326 327 326 326 327 327 328 327 328 328 327 327 326 326 325 324 324 323 321 319 316 315 313 312 311 310 310 309 309 309 308 308 308 308 308
326 326 326 327 328 327 326 327 328 327 326 326 327 327 327 327 327 328 328 327 326 327 328 328 328 328 328 328 328 328 327 326 326 325 326 326 325 325 325 325 326 326 325 325 325 326 326 326 326 326 326 325 325 325 326 327 326 325 326 326 325 326 326 326 327 326 326 325 324 323 322 321 319 317 315 314 313 312 311 310 309 309 308 308 308
327 327 327 328 328 328 327 327 328 327 326 325 326 328 327 327 327 327 327 327 327 328 329 328 328 328 328 328 328 328 327 326 326 325 326 326 325 325 325 325 326 326 326 325 325 325 326 326 326 326 325 324 323 324 324 324 324 324 325 324 324 326 326 326 327 327 327 326 326 327 326 325 324 322 320 317 314 313 312 311 310 309 309 309 309
328 328 328 328 328 327 327 327 328 327 327 326 326 327 327 328 328 327 326 327 327 329 329 328 328 328 328 328 328 328 327 327 326 326 326 326 326 325 325 325 326 326 326 326 326 326 325 326 326 326 325 324 323 323 324 324 323 323 324 324 324 326 326 326 326 326 327 327 328 327 326 326 326 324 324 321 318 315 313 312 311 311 310 309 309
329 328 328 328 327 327 327 327 328 328 327 327 327 327 327 328 328 327 326 327 328 329 328 328 329 329 328 328 328 328 327 327 326 326 326 326 326 324 324 324 324 325 327 326 326 326 326 326 326 325 325 324 324 324 324 324 323 322 323 323 324 325 326 326 326 326 325 325 326 325 325 327 326 325 325 324 323 320 317 315 314 313 312 311 310
328 328 328 327 328 328 327 327 328 328 328 327 327 327 327 328 328 327 326 327 328 329 328 328 329 328 328 328 328 328 327 327 326 326 325 325 324 322 321 322 322 324 325 326 326 325 325 325 325 325 324 324 324 324 324 323 322 321 321 321 321 322 324 324 325 325 325 324 325 325 325 325 325 325 326 325 325 324 322 320 318 316 315 314 313
327 327 328 328 328 328 328 328 328 328 328 328 327 327 326 328 328 327 327 327 328 328 329 328 328 328 328 328 328 328 327 326 325 324 324 323 322 320 319 320 321 323 324 325 325 324 324 323 324 324 324 324 324 323 322 321 320 319 319 319 319 320 322 323 324 324 324 324 324 325 325 324 324 325 326 326 326 326 325 324 323 320 318 317 316
327 327 328 328 328 328 328 327 328 328 327 327 327 326 326 327 328 327 327 327 328 328 329 328 328 328 328 327 327 327 326 325 325 323 322 323 322 322 321 320 320 322 323 323 323 323 323 323 323 324 323 323 322 321 320 319 319 318 318 319 320 320 321 322 323 323 323 324 324 324 324 324 324 325 325 326 326 326 325 325 325 324 322 320 318
326 327 328 327 327 328 327 327 327 327 327 327 327 326 325 327 328 328 327 327 328 328 328 329 328 328 328 327 327 327 326 325 325 324 323 323 323 323 322 321 320 321 321 321 321 321 322 322 322 322 321 321 320 319 318 318 318 318 319 321 321 320 321 322 323 323 323 324 324 324 323 324 325 325 326 325 325 325 325 326 326 325 324 324 322
326 326 326 326 327 327 327 327 327 326 327 327 326 326 326 327 327 329 328 327 328 328 328 329 328 327 327 327 327 327 326 325 325 324 323 323 323 323 322 322 321 320 320 321 321 321 321 322 321 320 320 319 319 319 319 319 318 319 320 321 321 321 321 322 322 322 323 323 323 323 323 323 324 324 324 324 324 324 324 325 325 325 325 325 325
326 325 325 326 326 326 326 326 327 325 326 326 325 325 326 327 327 327 327 326 327 328 328 328 329 328 327 326 326 326 326 325 325 324 323 323 323 323 322 322 321 320 320 320 320 320 321 320 320 320 319 319 320 320 319 319 318 318 318 319 320 321 321 321 322 321 321 321 321 321 320 320 320 320 320 320 320 320 321 322 323 325 325 325 325
326 325 325 326 325 326 325 325 325 325 324 324 324 324 325 327 326 326 326 326 327 328 328 328 328 328 327 326 326 325 325 325 325 324 323 323 323 323 322 321 321 320 319 319 318 318 318 318 318 318 318 318 319 318 317 316 315 314 313 315 317 319 320 321 321 321 321 321 321 320 320 320 319 319 319 318 318 317 317 318 320 322 323 324 324
325 325 325 325 325 325 325 324 324 324 325 324 324 324 324 325 326 325 326 326 326 327 327 328 328 328 327 327 326 325 325 325 324 323 323 323 323 323 322 321 321 319 319 319 318 316 314 314 315 316 315 315 315 314 313 312 311 310 309 309 311 314 316 317 318 318 319 320 320 321 321 321 321 320 320 319 319 318 317 316 317 318 319 320 321
322 325 326 325 325 325 324 325 324 324 325 324 324 325 324 325 325 325 325 325 326 326 327 327 327 327 327 327 326 324 325 325 323 322 322 322 323 322 322 321 321 320 319 319 317 314 310 310 312 314 315 315 314 312 309 308 307 306 305 305 306 307 309 310 311 311 311 312 313 314 315 315 315 315 316 316 316 317 317 316 317 317 317 317 317
317 319 323 324 325 324 323 323 323 323 324 324 323 324 324 325 325 325 325 325 326 326 327 328 328 327 327 327 326 324 324 324 323 322 322 321 322 322 321 321 320 319 319 318 316 312 310 308 309 312 315 315 312 309 307 306 305 305 305 304 304 304 305 305 305 305 305 305 305 306 306 306 306 306 307 307 308 309 310 312 313 314 315 315 315
316 316 317 320 321 322 322 321 321 323 324 324 324 323 323 324 324 325 325 324 325 326 327 328 327 327 327 327 326 324 323 323 323 323 322 321 321 321 320 320 319 316 317 318 316 312 310 309 308 308 310 310 308 306 306 305 306 305 305 305 304 304 304 304 304 304 304 304 304 304 304 304 304 304 304 304 304 304 304 305 306 307 309 310 310
318 317 317 316 316 318 320 320 320 321 322 322 322 323 323 324 324 326 326 325 325 326 326 326 326 326 326 326 325 324 323 323 322 323 323 322 321 320 319 319 318 315 316 317 315 312 311 309 308 307 306 306 306 306 306 305 306 305 305 305 304 304 304 304 305 305 305 306 306 305 306 305 306 306 306 306 305 305 305 305 304 304 304 304 305
321 321 320 318 315 314 316 319 319 320 321 320 320 320 322 324 325 325 326 325 325 325 325 325 325 325 325 325 325 324 323 323 323 323 322 321 321 320 318 317 315 314 317 317 313 311 311 309 308 307 306 306 306 305 305 305 305 304 304 304 304 305 305 306 307 307 307 307 307 307 307 307 307 307 306 306 306 306 306 306 306 306 306 305 305
322 323 322 321 317 315 315 317 319 319 319 319 319 318 319 322 323 324 324 325 324 322 323 324 324 325 325 324 325 324 323 324 323 322 321 321 321 320 317 316 315 314 316 317 314 311 310 309 308 308 307 306 306 305 304 304 304 304 304 304 305 306 307 308 308 308 308 308 307 307 307 307 306 305 304 304 303 303 303 304 304 304 305 305 305
320 320 321 321 318 316 317 319 320 321 320 319 319 317 318 321 322 322 323 323 321 320 321 323 323 324 324 324 324 324 323 324 323 322 321 320 319 318 315 313 315 316 316 316 314 311 309 308 308 308 307 307 306 305 305 305 305 305 305 306 307 308 308 308 309 309 309 308 306 305 305 305 304 303 302 301 301 301 301 301 301 301 301 302 303
320 318 319 321 320 317 317 317 317 319 320 320 318 317 319 321 321 321 320 319 318 318 320 322 323 324 324 323 323 323 324 325 324 322 321 317 315 314 312 310 312 314 315 316 314 312 309 308 308 308 307 308 307 307 307 307 307 307 307 307 308 308 308 309 309 309 309 308 306 305 304 304 303 302 301 301 301 300 300 300 300 300 301 301 301
321 319 319 321 321 318 316 315 316 318 319 319 319 319 320 320 320 319 318 317 318 320 322 323 323 324 323 322 322 323 324 324 323 322 320 315 311 311 312 311 310 309 312 314 313 311 309 308 308 308 308 309 309 308 308 308 307 307 308 308 309 309 309 309 309 309 309 308 308 307 305 304 303 302 302 301 301 301 300 300 300 300 300 300 301
320 319 318 319 319 317 315 317 319 320 320 321 321 321 320 319 319 318 317 318 320 322 323 322 323 322 320 319 318 319 321 322 322 322 321 316 311 310 312 312 311 309 310 311 310 309 308 308 309 309 308 309 310 309 308 308 308 307 308 308 309 309 309 309 309 309 310 309 309 307 306 304 303 302 302 301 301 301 300 300 300 300 300 300 300
320 319 318 318 317 314 315 318 319 319 321 321 321 321 320 320 319 319 319 320 322 322 321 320 321 319 317 316 315 316 318 320 320 321 322 319 313 311 312 311 311 311 310 310 310 309 309 308 309 309 309 308 309 310 309 309 309 308 308 308 308 308 309 309 309 309 310 309 309 308 306 305 305 304 303 302 302 302 301 301 301 300 300 300 300
319 316 313 315 314 313 317 320 319 318 319 319 320 320 320 321 321 320 321 322 321 320 317 316 317 317 316 316 315 315 316 318 319 320 321 320 315 312 312 311 311 311 311 310 310 310 310 309 308 310 309 308 309 310 310 309 309 309 309 308 308 308 308 308 309 309 309 309 309 308 307 306 307 307 306 305 304 304 303 302 301 300 300 300 300
314 310 309 311 311 314 319 320 319 319 319 319 319 319 319 321 322 322 322 321 320 318 314 313 313 314 314 315 315 315 316 317 318 319 321 320 316 313 313 312 312 311 311 310 309 310 310 309 310 311 309 308 309 309 309 310 309 309 309 308 308 308 308 308 309 309 310 310 309 308 307 307 308 308 308 307 307 306 305 303 301 300 299 299 300
308 306 307 308 309 314 319 319 320 320 320 320 320 318 318 319 322 323 322 321 320 318 315 314 313 313 313 314 315 314 315 315 316 317 319 319 316 315 314 313 313 312 311 310 309 310 311 311 312 311 309 309 310 309 309 309 309 309 309 308 308 308 308 308 309 309 310 310 309 309 308 308 308 308 308 308 308 307 306 304 302 300 299 299 299
306 306 306 306 307 313 318 318 318 319 319 319 319 318 316 315 317 320 322 322 321 319 318 316 314 313 313 314 314 314 314 315 315 315 316 316 315 315 314 314 313 312 311 310 309 311 313 313 313 311 309 309 310 310 309 310 309 309 309 309 308 308 309 309 309 309 310 310 310 309 309 308 308 308 308 308 308 307 307 305 302 300 299 299 299
307 307 306 306 306 310 315 316 315 315 316 316 316 316 315 312 310 312 316 318 318 317 315 313 311 311 311 313 314 314 314 314 314 314 314 314 314 314 314 314 314 314 313 311 310 313 314 314 313 312 310 310 311 310 310 310 310 309 310 310 309 309 309 309 309 310 310 310 310 309 309 309 308 308 308 308 308 307 307 305 302 300 299 299 299
308 308 308 308 307 308 311 312 312 312 311 311 311 312 311 309 306 306 309 310 311 311 310 309 309 308 308 311 313 314 314 314 314 314 314 313 313 313 314 314 314 314 312 311 312 315 314 314 313 312 310 310 311 310 310 311 310 310 310 310 310 310 310 309 309 310 310 310 310 310 309 309 308 308 308 308 308 307 307 305 302 300 299 299 299
309 310 310 311 311 310 309 308 308 309 308 308 307 307 307 305 304 305 305 306 308 310 310 310 310 308 308 309 310 311 312 313 313 312 312 312 312 313 313 314 314 314 312 312 314 315 314 313 313 312 311 311 311 311 311 311 311 310 310 310 310 310 310 310 310 310 310 310 310 310 309 309 309 308 308 308 308 308 307 305 301 299 299 299 299
311 311 311 312 313 313 311 309 307 307 307 307 306 306 305 305 305 306 307 308 309 310 310 311 311 310 310 309 309 309 309 310 310 310 310 311 312 313 313 314 314 314 314 314 314 314 314 314 313 313 312 312 312 312 312 312 311 311 310 310 310 311 310 310 310 310 310 310 310 310 309 309 308 308 308 308 308 308 306 303 300 299 298 298 298
313 313 312 313 313 313 313 312 311 310 308 307 307 307 307 308 308 309 309 310 310 310 311 310 311 311 310 310 310 310 310 310 310 311 311 312 313 313 314 314 314 315 315 314 314 314 314 314 313 313 313 312 312 313 313 313 312 312 311 311 311 311 311 311 311 311 311 310 310 309 309 309 308 308 308 308 308 306 303 300 299 298 298 299 299
315 314 313 313 314 314 314 314 314 313 312 310 308 308 309 310 311 311 311 311 310 310 310 310 310 310 310 310 310 310 310 310 310 311 311 312 313 314 314 314 314 314 315 314 314 314 314 314 314 314 314 313 313 313 314 314 313 313 312 312 312 312 311 311 311 311 311 310 310 309 309 309 309 308 308 308 306 302 300 298 298 298 298 299 299
315 315 315 314 314 314 313 314 314 314 314 313 312 310 309 310 311 312 312 312 312 311 311 310 310 310 310 310 310 310 310 310 310 310 310 310 312 313 314 314 314 314 314 314 314 314 314 314 314 314 314 314 314 314 314 314 314 314 313 312 312 312 312 312 311 311 311 310 310 310 309 309 309 308 308 305 302 299 298 298 297 297 298 298 298
316 316 316 316 315 314 314 314 314 314 314 313 313 313 312 311 311 311 312 313 313 313 312 312 311 310 310 310 310 311 311 311 311 311 311 312 312 312 312 312 314 314 314 314 314 314 314 314 314 314 314 314 314 314 314 314 314 314 314 313 313 312 312 312 312 311 311 311 310 309 309 309 308 307 305 302 299 298 297 297 297 297 297 297 297
318 317 318 318 316 315 314 314 314 314 314 314 314 314 314 313 313 312 312 312 312 312 312 312 312 311 311 311 310 311 311 311 311 312 313 315 315 314 314 313 314 315 315 315 314 314 314 314 314 315 314 314 314 314 314 314 314 314 314 313 313 312 312 312 311 311 311 310 310 309 309 308 306 304 301 299 298 297 297 297 296 296 296 296 296
320 319 320 319 317 316 315 315 315 314 314 314 314 314 314 314 314 313 313 313 313 313 313 312 312 312 311 311 310 310 310 311 311 312 314 315 316 316 316 316 316 316 316 316 315 315 315 315 314 315 314 314 314 314 314 314 314 314 314 314 313 313 312 311 311 311 311 310 310 309 308 306 303 300 298 298 297 297 296 296 296 296 296 296 296
321 320 320 319 318 316 316 316 316 315 315 315 315 316 316 316 316 315 314 314 314 314 314 314 314 313 313 313 312 311 311 311 312 313 314 315 316 316 317 317 317 317 317 317 317 316 316 315 315 315 315 315 315 315 314 314 314 314 314 314 313 313 312 312 311 311 310 310 308 306 304 302 300 298 298 297 297 296 296 296 296 296 296 296 296
321 321 321 320 319 318 317 317 318 317 318 317 318 318 318 318 319 318 317 316 315 314 314 314 314 315 315 315 315 314 314 314 314 315 315 316 316 317 317 317 318 318 318 318 317 317 317 316 316 316 315 315 315 314 314 314 314 314 314 313 313 312 312 311 311 310 309 307 305 303 300 299 298 298 297 297 296 296 296 296 296 296 296 296 296
321 321 321 321 320 320 319 319 319 319 319 319 319 319 319 319 319 319 319 319 318 317 316 315 315 315 315 315 315 316 316 316 316 316 316 316 317 318 318 318 317 317 317 317 317 317 317 316 316 316 315 315 315 314 314 314 314 314 313 313 312 312 311 311 310 308 306 304 302 300 299 298 298 297 296 296 295 296 296 296 296 296 296 296 296
320 320 320 320 320 320 320 320 320 320 320 320 320 319 319 319 320 320 320 320 320 319 319 318 317 315 315 315 315 316 316 317 317 317 317 318 318 318 317 317 317 316 316 316 315 314 314 315 315 315 314 313 314 314 314 314 313 312 312 312 312 311 310 308 306 304 302 301 300 299 298 298 297 296 296 295 295 295 296 296 296 296 296 295 295
319 319 319 318 318 318 318 318 318 318 318 319 319 319 319 319 319 319 319 319 320 320 320 319 319 318 317 316 315 316 316 317 318 318 318 318 318 317 317 317 317 317 316 316 315 314 313 313 313 313 311 310 312 313 313 312 312 312 312 311 310 309 307 304 302 301 300 299 299 298 298 297 297 296 295 295 295 296 296 296 296 296 295 295 295
316 316 317 317 316 316 316 316 316 316 316 316 317 318 318 318 318 318 318 318 319 319 319 319 319 319 318 318 317 317 317 318 318 318 318 318 318 317 317 317 317 316 316 315 314 313 312 312 311 310 310 310 311 313 312 311 311 311 311 309 306 304 302 301 300 299 299 299 298 298 297 297 296 295 295 295 296 296 295 295 296 295 295 295 295
Wind_Speed
8 9 9 9 9 9 9 9 9 7 7 8 9 10 11 13 14 15 16 19 21 21 19 16 14 13 11 8 6 4 2 1 1 3 4 4 3 3 3 4 4 4 5 3 1 2 3 2 4 4 4 3 2 2 2 2 2 1 2 2 2 2 2 2 1 2 2 2 3 3 4 4 4 5 5 6 6 7 8 8 9 9 10 11 11
8 8 8 8 8 8 9 9 9 8 8 9 11 12 12 13 13 13 14 16 18 19 18 16 14 13 11 8 5 3 2 1 0 2 3 3 2 3 3 4 4 4 5 4 3 4 5 3 3 3 3 3 3 3 3 3 3 2 3 3 3 3 2 2 2 1 1 2 2 3 3 3 3 4 4 5 5 6 6 7 8 8 9 9 10
7 7 6 7 7 7 8 9 9 9 9 10 12 13 13 13 12 12 12 13 14 16 16 15 15 13 10 7 5 4 3 2 1 1 2 2 2 2 3 3 4 4 5 5 4 4 7 6 4 4 5 6 6 6 6 6 5 5 6 6 6 6 5 5 4 3 1 1 2 2 3 3 3 3 3 4 4 5 5 6 7 7 8 9 9
6 6 6 6 7 7 7 9 10 10 10 10 12 13 13 13 12 11 11 11 12 13 14 13 14 12 9 7 5 5 5 3 2 2 1 1 2 3 3 3 4 5 5 5 4 5 8 10 8 7 7 8 8 9 9 9 9 9 10 10 10 10 9 9 8 7 4 3 2 1 2 2 2 2 3 3 3 4 5 5 6 7 7 8 8
5 6 7 6 7 7 6 8 10 11 10 10 10 11 12 13 12 11 10 9 10 11 11 10 10 11 10 8 7 6 5 5 4 3 2 2 3 3 3 3 4 5 5 5 5 6 7 8 9 7 7 9 9 9 10 10 10 10 10 10 10 11 11 11 11 10 8 6 4 3 2 2 2 2 3 3 4 4 4 5 5 6 6 7 7
5 6 7 7 7 7 6 6 8 9 9 9 9 10 11 11 11 10 9 9 9 8 9 8 9 10 11 9 7 5 5 5 4 3 3 3 3 4 4 4 4 5 5 5 6 7 6 5 5 5 5 6 6 6 6 6 6 5 6 7 8 9 9 10 10 10 9 8 7 6 4 3 3 3 3 3 3 3 4 4 5 5 5 6 6
6 6 7 7 6 6 6 5 6 7 8 9 9 9 9 9 10 10 8 8 8 7 8 9 10 11 10 8 6 5 4 4 3 4 5 4 4 5 5 5 4 4 5 5 5 6 5 4 3 3 3 3 2 3 3 2 2 2 3 4 5 6 6 6 6 7 8 8 8 8 7 6 5 4 4 4 3 3 3 4 4 4 4 5 5
7 7 8 7 6 6 6 5 5 6 8 9 8 7 7 7 8 9 8 7 7 7 9 10 11 10 8 6 6 5 5 5 5 5 6 5 5 5 4 4 4 4 5 5 5 4 4 5 4 3 2 2 1 1 2 2 3 4 4 4 5 5 5 4 4 4 4 5 6 6 6 6 5 5 4 4 4 4 3 3 4 4 4 4 5
8 8 8 7 6 7 7 5 5 6 8 9 8 7 6 6 6 8 8 7 7 10 12 12 11 10 7 6 7 7 8 8 7 6 6 5 5 4 4 4 3 3 4 4 4 4 4 4 3 2 2 3 3 2 3 4 4 5 5 5 6 6 5 4 3 3 3 4 4 4 5 5 5 5 5 5 5 4 4 3 4 4 4 4 4
8 8 9 8 8 8 8 7 6 7 8 8 9 8 7 6 5 6 8 7 8 12 13 13 13 9 7 8 8 9 9 8 8 7 6 5 4 3 3 3 3 2 3 3 3 4 3 3 2 2 1 3 4 4 5 6 6 5 5 4 4 6 6 6 6 5 5 4 4 4 5 5 5 5 5 6 6 5 4 4 4 4 5 5 4
8 9 9 9 9 9 9 8 8 8 8 8 9 9 8 6 5 6 9 9 11 13 13 14 14 10 8 9 9 9 9 9 9 7 6 5 4 3 3 3 2 2 2 3 4 3 3 3 2 1 1 3 5 6 6 7 6 6 6 4 4 6 7 7 7 6 7 6 5 5 6 5 5 5 4 5 5 5 5 5 5 5 6 6 5
9 9 10 10 9 9 10 10 8 8 8 8 8 9 8 7 7 8 10 12 13 13 13 15 15 13 11 10 10 10 10 10 9 8 7 6 6 5 5 3 2 2 1 3 3 3 3 4 3 3 4 4 5 5 6 7 7 7 7 7 6 7 8 8 8 7 8 8 6 7 8 7 6 6 5 4 4 5 5 5 6 6 6 6 6
9 10 10 9 9 9 10 10 8 7 7 7 8 9 9 8 8 9 10 12 14 14 14 15 14 14 13 11 11 10 10 11 10 9 8 7 7 6 5 4 3 3 2 1 1 1 1 2 3 3 3 3 4 5 6 7 7 8 8 8 7 7 8 9 8 7 7 8 7 6 7 7 7 7 7 5 4 4 4 4 5 5 6 5 5
9 10 10 9 9 9 10 11 9 7 7 8 9 9 10 8 9 11 11 12 14 15 15 14 13 13 13 12 11 11 12 12 10 10 10 9 8 7 6 5 4 4 4 3 2 1 1 1 2 2 1 2 4 5 6 6 7 8 8 8 7 7 7 7 8 7 6 6 6 5 5 6 7 7 7 7 5 5 4 3 3 4 4 4 5
9 10 9 9 9 9 9 9 8 7 8 9 10 10 10 9 9 10 11 13 14 15 15 14 12 12 12 11 11 13 13 12 11 11 11 10 8 7 6 4 4 4 4 4 2 2 2 2 3 3 3 4 4 5 6 6 7 8 8 8 7 6 6 7 7 8 7 5 4 4 3 3 5 6 6 6 5 6 6 4 4 3 3 3 4
8 9 9 8 8 9 9 8 7 7 9 10 10 11 10 9 10 9 9 11 13 15 15 13 11 12 12 11 11 12 12 12 11 11 10 9 7 7 6 5 5 4 4 4 4 4 4 3 4 5 5 5 4 5 6 6 7 8 8 9 9 8 7 8 8 9 7 6 5 4 4 2 1 2 3 3 3 5 6 5 5 4 4 4 4
7 7 8 8 8 9 8 7 7 8 10 10 9 10 10 10 10 10 9 8 10 13 14 13 12 11 11 11 11 10 11 13 12 10 9 7 6 5 6 6 7 6 7 6 7 8 7 6 6 6 6 5 5 5 6 7 8 9 10 11 11 11 10 10 11 11 11 11 10 10 9 8 6 5 4 4 3 2 4 4 4 5 5 6 6
8 7 7 8 8 8 7 7 7 8 9 10 10 11 11 11 10 10 9 8 8 9 11 13 13 13 11 10 8 7 11 15 13 11 10 8 6 5 5 6 6 7 8 9 10 9 9 8 7 7 7 7 7 8 9 10 11 11 11 12 12 12 11 11 13 13 13 13 12 12 12 12 11 10 9 9 8 7 6 5 4 4 5 6 7
8 8 8 9 9 8 7 8 8 8 8 9 10 10 11 11 10 10 10 9 8 8 9 11 13 15 13 10 7 5 8 12 12 13 14 12 9 7 5 5 6 8 9 11 12 11 10 9 8 8 8 8 9 10 10 11 11 11 11 11 12 11 11 11 12 13 12 12 11 11 11 11 11 11 10 10 10 10 10 9 8 6 5 4 4
9 9 8 8 8 8 8 9 9 9 9 9 9 9 11 12 11 11 11 10 9 8 9 10 12 14 13 11 8 5 7 11 11 13 15 16 14 10 7 6 7 9 9 10 11 11 10 9 8 8 8 9 9 10 10 10 9 9 9 10 10 10 10 11 11 11 11 11 10 10 10 10 10 9 9 9 9 9 10 10 9 9 9 7 6
9 9 8 8 8 8 9 9 10 9 9 10 10 10 10 11 11 12 10 9 9 9 9 10 12 13 12 12 9 7 10 14 13 11 12 15 16 14 11 9 9 9 8 8 9 10 11 10 8 7 7 8 9 9 9 9 8 8 9 9 9 9 9 9 10 10 9 9 9 9 9 9 9 8 8 8 8 8 8 8 8 8 8 8 8
8 8 8 8 8 8 8 9 9 9 9 10 10 10 11 11 11 11 10 9 10 10 10 10 11 12 12 11 11 10 13 16 15 12 12 12 14 16 14 11 9 9 8 7 7 9 11 12 9 6 5 6 7 8 8 8 7 8 9 9 9 9 9 10 10 10 9 9 9 9 9 9 9 8 8 8 7 7 7 7 7 7 7 7 8
7 7 8 8 8 8 8 7 8 8 8 8 8 9 10 10 11 10 9 10 10 11 11 11 12 12 12 11 11 11 12 14 14 14 13 11 12 16 16 11 8 8 8 7 6 7 10 11 9 7 5 5 5 6 6 6 7 8 9 9 9 10 10 11 11 11 11 11 10 10 10 10 10 10 10 9 9 9 8 8 7 7 6 7 7
5 5 6 6 7 8 9 8 8 7 6 6 6 7 8 9 9 9 8 9 9 10 11 12 11 11 12 12 11 11 11 12 11 12 12 10 11 15 16 12 9 9 8 6 5 6 7 9 9 8 7 5 5 5 6 6 8 9 10 10 10 11 11 12 12 12 12 11 11 10 10 10 10 10 10 9 9 9 9 9 8 8 7 7 7
4 4 4 4 4 7 9 9 8 7 6 5 4 5 7 8 8 8 8 7 8 8 9 10 10 9 11 13 13 12 13 13 11 10 11 10 11 14 15 12 10 11 10 7 5 5 5 7 8 8 7 6 6 7 7 8 9 10 11 11 11 11 11 11 12 12 12 12 11 11 10 10 10 10 10 9 9 9 9 9 8 8 7 7 7
3 4 4 3 4 5 7 8 8 7 7 5 2 3 6 9 8 8 8 8 8 8 9 10 9 8 10 14 14 13 14 15 13 11 12 12 12 14 15 14 11 10 10 9 5 4 4 5 6 7 6 6 7 8 8 8 9 11 11 11 10 10 10 11 12 13 14 15 14 12 10 10 9 10 10 10 10 10 9 9 9 9 8 7 7
2 4 6 5 5 5 5 6 8 8 7 5 3 3 6 8 8 8 8 8 9 9 10 10 9 9 11 13 14 14 15 16 15 14 13 12 12 13 14 15 13 11 9 9 7 3 2 4 5 6 6 6 7 8 8 8 9 10 10 10 9 8 8 8 9 10 11 13 15 15 12 10 10 10 11 11 11 11 10 10 9 9 9 8 8
1 1 5 6 5 5 5 5 7 8 8 6 5 5 6 7 7 8 7 8 9 10 10 10 10 11 13 14 15 15 16 16 16 15 12 11 11 12 10 8 10 13 12 10 9 6 3 3 5 6 6 6 6 7 8 7 8 9 9 9 8 7 6 7 8 9 10 12 14 16 15 12 10 11 12 12 12 12 12 11 10 10 9 9 9
1 1 3 5 5 4 4 5 5 6 7 7 6 6 7 7 7 8 8 7 8 10 10 10 11 12 13 13 14 15 16 16 16 16 13 11 12 12 7 1 2 9 12 11 10 8 6 5 5 5 5 6 6 7 7 7 7 8 8 7 7 7 7 8 9 10 12 13 15 17 17 15 12 11 11 12 13 13 14 14 13 12 11 10 10
2 1 2 4 5 4 5 6 6 6 7 7 7 7 7 8 9 8 8 8 10 11 10 10 11 13 13 12 11 11 13 14 16 16 14 13 13 13 8 2 1 3 5 6 9 9 7 6 6 5 4 5 6 7 7 7 7 7 6 5 5 5 6 7 8 10 12 14 16 17 18 18 17 16 15 15 15 15 16 16 16 15 14 12 11
3 3 3 4 4 4 6 7 7 7 7 7 7 7 8 8 9 9 10 10 10 11 10 9 10 11 11 10 8 8 11 13 15 16 16 15 14 14 11 7 5 4 2 2 6 8 8 7 5 4 4 5 5 6 6 6 7 7 6 5 4 4 3 4 6 8 11 13 14 16 18 19 21 21 21 20 20 20 20 19 19 19 17 15 13
4 4 3 4 3 4 8 9 7 7 8 7 6 6 7 8 9 10 11 11 10 10 9 9 10 9 8 7 6 7 10 11 14 15 16 16 16 14 12 10 9 8 7 5 3 4 7 8 6 3 4 6 5 4 5 5 6 6 6 5 4 2 1 2 4 6 9 11 12 14 15 17 20 22 23 24 24 25 25 24 23 22 20 18 16
4 3 3 3 4 6 9 8 7 7 6 6 5 5 6 9 10 12 12 12 11 11 10 10 11 10 9 8 7 8 9 11 13 15 15 17 17 14 13 13 13 12 11 10 7 5 7 9 8 5 6 8 7 5 5 5 5 6 5 4 3 3 2 1 2 4 7 9 11 12 13 15 18 21 23 24 26 26 27 26 25 24 22 20 18
2 3 4 3 5 8 10 8 8 7 5 5 4 4 6 9 11 12 13 13 13 12 12 12 12 11 10 9 9 9 11 11 13 15 15 16 16 14 14 14 15 15 15 14 11 8 8 8 8 7 8 10 8 7 6 6 5 6 5 4 4 5 4 4 3 4 6 8 9 10 12 14 17 19 21 22 24 26 28 28 27 26 24 22 20
4 4 4 4 6 9 10 9 8 8 7 7 6 5 7 8 10 12 13 13 13 13 13 13 13 13 12 12 11 11 13 13 13 15 15 14 13 12 12 12 13 16 17 17 14 10 9 9 9 8 10 10 9 7 8 7 6 6 5 6 7 7 7 6 5 5 6 8 10 11 12 14 15 17 19 21 24 27 29 29 28 26 24 23 21
5 5 5 5 6 9 10 9 8 8 8 8 7 7 8 8 9 11 13 13 12 12 12 12 13 14 15 15 14 13 14 13 13 13 12 12 11 11 11 11 12 13 16 18 16 11 10 10 10 9 10 10 8 9 9 9 8 7 6 6 8 8 8 8 8 8 8 10 11 12 13 14 15 16 18 21 24 27 29 30 29 27 25 24 22
7 7 7 7 6 6 8 8 8 7 7 8 9 9 10 10 11 12 13 12 11 10 10 10 10 12 15 17 16 16 15 15 14 14 13 13 14 13 12 13 12 12 15 18 16 12 11 11 10 10 11 11 10 10 9 8 9 9 8 7 8 9 9 9 10 10 11 11 12 13 14 14 15 17 20 23 25 27 30 31 30 28 25 24 22
7 8 8 7 7 5 4 6 7 7 7 8 10 10 11 11 12 13 13 12 12 11 10 10 9 10 12 14 16 17 17 17 16 16 15 15 15 14 13 12 12 13 15 16 15 13 12 11 10 10 11 11 11 11 10 9 10 11 10 10 10 10 11 11 12 12 12 13 13 14 14 15 16 19 21 24 27 30 32 32 31 28 26 24 23
8 7 7 5 5 4 3 3 5 7 8 9 11 11 12 12 13 13 13 13 12 11 11 11 10 10 9 11 13 14 15 15 15 15 14 14 15 15 14 13 13 14 15 15 14 15 14 12 12 12 11 11 12 12 11 11 12 12 13 13 13 13 13 13 13 14 14 14 15 15 15 16 18 20 23 26 29 31 32 31 29 27 25 23 22
8 6 6 5 4 4 3 2 3 4 6 9 11 12 13 13 13 13 13 12 12 12 12 12 12 11 10 10 11 12 13 13 13 14 15 15 16 15 15 15 16 16 16 16 15 17 17 15 15 14 13 14 14 14 13 14 14 15 14 15 15 15 14 14 15 16 16 16 16 16 16 17 20 22 25 29 31 31 30 28 26 24 22 20 20
8 7 6 6 5 5 4 4 3 3 3 5 8 11 13 14 13 13 13 13 13 13 13 14 14 13 12 12 12 13 14 14 15 15 16 17 17 17 17 17 18 19 19 19 18 18 18 18 18 17 16 17 17 17 16 16 16 15 15 16 16 16 16 17 17 18 18 17 17 18 19 20 23 25 28 30 31 29 28 26 24 23 22 20 20
10 9 8 7 6 6 6 6 6 5 3 2 4 7 10 12 13 14 14 14 14 14 14 14 15 15 15 15 15 15 16 17 17 17 18 19 20 20 19 19 19 21 21 22 22 21 20 20 20 20 19 20 20 19 18 18 17 16 17 18 18 18 18 19 20 20 20 20 20 21 22 24 25 27 29 30 29 27 25 24 24 23 23 23 23
11 11 10 8 8 8 7 7 7 6 5 3 3 4 6 8 11 13 14 15 16 16 17 17 17 17 17 17 17 17 18 18 18 18 19 19 20 21 22 21 20 20 21 22 22 23 22 22 21 21 22 21 21 21 20 19 19 19 18 18 19 20 21 22 22 22 22 23 23 23 24 26 27 27 27 27 26 25 24 24 24 24 24 24 25
13 12 10 11 11 11 10 9 9 8 7 6 7 7 7 8 9 10 12 14 16 18 19 20 20 20 20 20 20 20 19 19 18 19 19 19 19 20 21 22 21 21 21 22 22 23 23 24 24 23 23 23 22 22 22 21 20 20 19 18 19 20 21 22 22 22 23 24 24 25 26 27 27 26 24 24 24 23 24 25 24 24 24 25 26
14 13 10 11 13 15 14 13 13 13 12 12 12 12 12 12 13 13 13 14 14 15 17 18 20 21 22 23 23 22 21 21 20 20 20 21 21 21 21 22 23 23 23 23 23 24 24 25 26 26 26 25 24 24 23 22 22 21 21 20 19 20 21 22 22 23 25 25 25 25 26 25 24 23 21 20 21 22 23 25 24 24 25 26 26
14 14 12 13 15 17 17 17 16 16 16 16 15 15 15 15 16 17 18 18 19 18 17 18 18 20 21 22 23 23 22 22 22 22 23 24 24 24 24 25 25 25 25 25 25 26 26 26 27 27 27 27 26 25 24 23 23 23 22 20 19 20 21 22 24 25 25 25 24 23 22 22 21 20 19 19 20 23 24 24 24 24 25 26 26
15 16 15 16 17 18 19 19 19 18 17 17 17 16 17 16 17 18 19 21 22 23 23 23 22 22 22 22 23 23 24 24 24 24 25 27 28 28 29 29 29 28 28 27 28 28 28 28 28 27 27 26 26 25 25 24 23 23 21 20 19 20 22 23 24 25 24 23 21 20 20 20 20 20 19 19 20 22 23 23 23 24 25 26 28
16 16 17 17 18 18 20 21 21 21 20 20 19 19 19 18 19 19 20 21 22 24 25 26 27 27 27 27 27 27 26 26 26 27 28 29 31 32 33 33 33 33 32 31 32 31 29 28 29 28 26 25 24 25 25 25 24 23 22 21 21 22 23 23 23 22 21 20 19 19 19 20 20 20 19 20 20 21 22 23 23 25 26 28 29
15 15 16 17 17 18 19 21 23 24 24 24 25 25 24 23 23 22 22 23 24 25 26 27 28 30 31 31 31 32 31 31 30 31 31 32 33 34 36 36 35 34 34 34 36 35 32 30 29 26 25 24 23 24 25 24 24 23 22 22 23 23 21 20 19 19 19 18 19 19 18 18 20 21 21 22 22 21 22 23 23 24 27 28 28
14 15 15 15 16 17 17 18 20 21 22 23 24 26 27 28 27 26 25 24 25 27 28 29 29 30 31 32 34 35 36 36 34 34 35 35 36 37 38 37 35 33 34 35 35 34 33 31 28 25 24 25 25 26 26 25 24 24 24 23 22 20 18 16 16 16 17 18 18 17 18 18 21 23 24 24 24 23 23 23 23 25 26 27 26
14 15 16 16 16 17 17 18 19 20 21 21 22 24 25 27 28 29 28 27 26 27 29 30 31 30 30 31 32 34 37 37 36 35 36 37 37 37 37 36 35 34 35 34 32 30 28 27 25 25 25 26 27 28 26 25 24 23 22 20 18 16 15 14 14 15 16 17 17 18 19 20 22 24 25 26 26 25 24 24 24 25 26 25 23
Wind_Direction
165 162 158 153 146 148 156 165 175 169 153 146 157 166 166 168 169 170 173 175 177 180 181 176 171 177 183 178 169 169 180 191 74 43 29 29 39 36 39 48 57 84 104 116 78 31 16 85 146 161 158 147 137 116 100 90 67 50 45 38 25 18 10 7 20 31 36 37 38 44 46 49 55 57 58 57 57 58 58 58 58 60 59 57 56
170 163 157 153 147 156 170 179 183 177 168 163 165 170 168 170 173 173 175 176 180 184 186 184 179 181 186 184 177 181 202 218 79 45 46 59 64 60 64 61 64 81 94 92 68 51 47 72 130 136 117 103 91 82 80 77 69 68 66 62 53 38 27 12 7 26 35 31 26 26 28 31 39 45 48 49 51 53 54 54 53 55 56 55 54
174 170 163 157 160 170 180 189 189 181 178 176 175 179 177 177 179 180 183 182 183 186 188 188 186 185 187 187 187 190 200 209 185 79 81 87 93 98 98 89 83 84 90 89 80 75 61 60 99 115 88 80 85 83 80 79 79 81 78 72 68 59 54 48 41 41 45 51 41 28 23 18 22 30 35 38 42 45 47 49 48 48 50 51 51
177 174 172 169 179 186 185 188 190 186 183 179 178 183 185 185 185 188 194 194 194 191 186 188 191 190 189 188 189 197 206 203 174 144 139 160 152 134 120 109 98 92 94 88 77 91 81 66 71 85 80 77 82 85 83 81 81 82 79 73 67 62 58 55 50 45 41 44 49 45 29 19 19 18 19 24 30 33 36 40 42 42 43 46 46
177 170 175 180 188 190 185 182 185 187 185 180 178 183 188 190 193 196 201 206 205 197 192 194 194 191 190 186 183 196 208 197 183 186 207 196 159 129 115 108 100 101 106 101 87 89 89 73 62 65 73 74 74 77 78 75 71 68 66 62 59 58 57 55 54 49 43 40 37 38 35 25 23 18 17 20 24 26 27 30 33 36 38 39 41
177 175 182 190 193 186 178 177 185 191 189 185 183 186 188 193 200 203 208 210 207 206 207 201 185 183 188 186 183 189 197 195 189 192 192 167 140 124 115 103 97 100 99 97 92 88 88 83 70 69 78 78 76 75 71 65 57 47 38 38 40 45 50 52 54 53 49 46 42 40 40 40 35 30 26 24 26 27 26 28 27 29 32 34 37
180 187 195 200 199 188 182 181 190 196 192 188 190 193 193 198 205 206 210 205 202 209 204 184 174 180 187 180 176 177 172 176 168 161 164 154 140 133 119 101 93 94 91 88 88 93 102 112 117 118 115 111 109 85 64 46 28 2 347 357 7 19 32 42 46 50 52 52 50 48 46 47 48 44 38 29 25 21 20 22 21 21 22 31 35
186 194 200 203 199 193 194 194 194 195 195 193 194 197 199 203 203 205 211 203 196 192 176 167 168 176 175 162 161 153 136 137 140 144 145 141 138 135 125 109 104 101 96 91 85 91 105 116 130 140 135 122 107 58 357 336 333 336 343 351 350 344 350 11 18 24 35 41 49 54 54 52 53 48 38 26 14 5 4 5 7 9 11 20 28
192 198 202 205 204 201 204 207 200 195 195 195 196 196 197 200 203 209 210 202 191 174 161 160 165 162 148 135 131 122 118 122 126 134 133 129 132 133 127 115 112 115 111 105 105 108 110 117 131 135 113 81 60 21 346 345 346 342 344 353 344 323 316 320 318 328 350 360 10 27 38 36 36 36 30 22 12 2 355 353 356 359 2 8 14
202 207 210 211 211 209 210 213 208 197 194 194 194 196 194 191 202 203 190 183 179 166 156 155 157 149 134 127 120 112 113 115 119 131 132 125 130 136 133 123 120 138 143 141 136 133 137 152 164 151 96 36 15 355 345 346 349 342 338 340 310 294 296 295 292 295 298 307 327 345 358 359 2 8 10 13 11 8 3 1 4 4 3 1 359
218 220 221 217 215 214 212 215 212 199 192 192 191 191 187 176 177 176 163 160 167 163 155 153 151 148 144 132 122 118 117 115 116 125 126 118 114 115 126 124 108 136 182 197 182 176 188 194 200 220 296 327 338 340 338 338 339 331 327 323 292 284 291 290 288 289 285 284 291 305 313 319 332 333 340 1 3 8 15 13 16 18 12 4 359
224 223 221 218 215 214 211 210 208 196 189 189 188 183 179 173 169 162 153 153 160 160 156 157 153 146 145 137 126 123 120 117 117 117 116 110 101 95 103 103 85 111 196 224 195 191 208 211 232 267 293 310 328 339 338 336 337 333 330 328 317 307 302 297 295 293 294 297 294 293 294 293 300 307 315 336 350 2 12 15 19 23 22 18 9
219 215 212 210 210 209 206 203 199 192 188 189 189 180 176 177 170 159 155 156 159 159 160 162 157 144 143 144 133 125 123 122 118 114 110 105 97 90 94 98 91 99 107 156 149 186 234 227 262 278 298 322 336 344 341 340 343 348 351 347 339 326 315 312 312 309 303 302 299 293 289 285 282 285 291 303 323 341 349 360 9 14 20 22 16
212 209 206 203 202 200 199 198 196 198 197 193 191 184 180 177 170 162 160 161 160 161 164 168 165 154 153 149 134 128 130 128 121 113 106 96 88 84 90 100 99 97 103 109 107 90 69 34 323 310 2 11 358 355 349 349 356 0 1 355 344 333 331 328 326 333 333 316 305 298 292 281 267 261 266 277 289 296 302 323 343 352 1 7 8
202 201 201 198 195 189 187 189 195 204 202 197 191 186 181 173 169 168 164 164 164 165 169 173 171 163 157 147 137 138 137 132 124 113 105 94 83 78 81 93 107 109 107 102 90 70 69 53 17 17 39 37 17 3 357 359 6 10 10 4 353 346 348 345 349 3 10 5 340 321 311 272 255 254 260 266 269 275 288 302 303 303 318 339 350
191 193 195 195 192 183 181 186 194 197 193 197 196 189 184 174 172 177 176 172 170 170 172 176 178 171 160 148 145 149 146 143 134 119 112 102 86 77 76 84 98 98 85 69 65 67 69 68 53 43 44 43 27 12 13 18 21 23 25 24 24 28 20 9 22 35 35 46 53 37 31 20 313 297 298 306 295 275 273 280 288 290 293 307 319
180 188 192 193 188 181 185 190 192 189 184 190 198 193 187 181 178 181 185 184 178 177 175 175 182 185 177 159 151 157 159 156 147 131 126 123 106 90 86 90 88 74 62 62 71 76 74 70 62 53 48 45 40 36 38 39 40 38 36 37 39 40 35 32 48 59 58 61 64 60 59 61 59 53 37 31 22 326 301 295 294 290 282 283 289
167 174 180 181 180 182 190 189 185 187 188 192 196 195 191 187 187 187 190 191 190 192 187 181 182 189 192 182 172 180 176 167 158 146 143 145 132 117 110 100 82 66 64 70 73 74 75 69 58 52 53 55 54 52 52 49 45 43 40 40 40 41 40 40 49 56 58 61 62 63 64 63 61 59 57 56 53 41 25 15 358 316 297 285 279
162 167 170 172 176 180 183 179 177 184 196 198 193 191 192 192 194 194 195 196 198 207 207 198 192 190 194 197 195 195 193 187 177 165 160 160 151 139 137 119 89 78 77 74 70 68 69 65 61 60 59 60 59 54 50 46 42 39 39 40 39 41 43 44 47 51 54 57 58 58 57 56 56 56 55 51 47 45 39 36 34 24 14 354 315
161 166 169 172 177 180 179 177 179 184 189 188 185 186 189 195 197 195 195 198 202 209 213 214 208 199 196 201 205 195 197 203 196 182 170 162 156 152 153 142 110 96 86 75 66 59 54 54 58 63 61 56 52 47 41 37 34 33 37 42 41 42 46 48 49 50 51 53 52 51 50 49 49 47 45 41 35 34 35 37 38 36 38 33 22
166 168 170 173 175 179 183 183 184 185 182 178 180 182 185 193 195 193 195 201 207 208 207 214 214 209 204 203 204 189 185 192 194 195 184 167 162 164 165 159 136 113 94 76 65 54 46 46 51 56 54 45 37 34 32 31 31 36 43 47 48 48 51 54 54 53 51 52 50 49 48 45 42 37 34 31 26 25 26 30 31 29 30 28 26
171 174 176 179 179 178 180 185 186 182 179 177 179 180 183 190 192 195 204 210 214 211 207 210 212 214 216 211 204 189 182 187 191 196 194 179 169 169 173 170 153 128 108 88 71 58 48 45 47 52 46 32 26 25 30 34 39 48 55 56 58 60 63 66 67 65 62 59 57 56 55 53 50 46 42 38 33 31 28 26 22 16 12 10 9
172 173 176 184 190 191 187 188 190 184 176 174 175 178 183 189 192 198 206 208 209 211 209 208 208 211 214 214 211 203 196 195 195 195 195 191 176 169 170 174 161 132 118 109 82 60 49 43 43 53 52 33 28 32 41 50 57 62 65 66 71 74 76 78 79 79 76 71 68 65 63 62 61 59 56 54 50 46 42 40 34 26 17 7 1
178 176 171 171 183 195 197 197 196 189 180 171 167 175 182 184 188 192 195 195 200 208 211 211 210 209 207 206 202 206 214 210 203 200 199 203 190 172 167 169 160 138 131 130 105 72 52 43 44 57 63 54 52 58 65 71 74 77 77 80 84 86 86 85 83 82 78 75 70 65 62 60 58 56 53 51 49 45 42 41 40 37 32 24 16
185 194 186 168 174 185 191 197 199 196 192 180 163 174 187 188 191 194 193 194 200 205 209 212 211 208 204 200 193 196 208 211 210 204 197 200 196 178 168 167 159 147 148 152 133 102 71 48 48 65 71 70 77 79 82 86 87 89 89 92 95 93 91 86 80 74 67 62 57 53 52 49 46 43 39 37 34 31 28 24 24 23 23 22 19
218 226 222 211 206 194 188 191 192 195 197 194 180 175 186 192 198 198 193 193 197 196 197 199 201 199 197 196 193 194 202 208 208 200 195 197 198 189 174 162 158 156 160 168 162 123 96 69 64 80 81 80 87 86 89 96 98 98 98 100 100 96 93 86 78 71 62 54 47 45 47 47 45 41 36 34 30 27 24 18 12 7 3 1 359
249 240 223 212 208 199 190 192 197 204 208 212 226 203 183 189 197 195 191 193 194 191 188 189 192 189 181 183 188 191 197 204 202 197 203 209 205 202 188 166 162 169 174 180 178 159 121 96 89 98 99 95 97 96 99 105 106 107 107 107 104 99 94 85 76 68 57 48 45 44 45 46 49 46 41 38 34 32 28 23 16 8 360 354 350
13 245 210 207 208 196 191 203 209 210 216 225 229 210 188 190 197 196 198 200 191 184 185 186 186 180 174 176 183 188 191 197 200 199 204 212 206 199 193 178 172 176 182 194 195 189 176 131 110 115 117 112 110 110 110 114 115 115 113 110 106 99 90 83 75 64 51 44 42 43 41 40 43 44 40 36 34 32 29 24 18 10 3 356 351
5 23 199 207 214 218 217 212 200 195 204 206 200 195 191 197 202 201 205 200 180 174 178 180 178 174 172 173 178 185 187 190 197 196 191 199 199 186 175 189 195 173 174 191 203 201 191 160 132 125 129 127 123 123 121 120 124 124 120 114 108 103 97 89 76 58 46 39 35 34 32 32 32 29 26 25 25 26 23 20 16 10 2 355 349
321 340 232 217 212 216 216 203 185 173 175 172 172 179 186 194 197 195 194 185 171 169 170 168 167 165 164 164 166 178 186 189 195 193 189 194 198 192 185 190 226 175 153 166 188 197 200 186 156 133 139 142 126 121 123 123 130 134 132 125 113 108 105 90 65 42 35 32 28 24 22 21 19 16 11 10 11 12 12 11 9 5 1 354 346
304 306 271 247 237 203 192 192 181 165 158 151 153 165 175 182 184 181 178 171 169 169 164 162 164 164 165 163 161 170 183 192 198 196 194 196 200 203 204 205 213 236 254 156 177 194 201 196 177 148 156 164 138 120 123 129 138 142 144 139 122 113 105 76 45 30 26 23 21 19 16 14 11 9 6 4 2 1 1 0 359 358 357 354 346
290 281 252 243 237 189 182 185 178 163 155 145 139 151 168 172 172 174 173 170 173 171 163 162 165 171 180 177 168 171 180 188 192 195 198 198 202 207 212 216 220 232 246 244 228 212 198 192 189 179 177 184 175 147 138 141 154 159 155 149 145 157 153 55 27 21 18 14 12 13 11 8 5 3 1 359 357 355 353 352 352 351 351 349 344
270 221 198 200 192 182 181 180 176 170 163 151 140 150 172 176 174 177 178 178 182 180 174 172 171 178 192 193 180 173 177 180 183 190 197 197 201 211 220 225 225 228 236 240 243 235 211 197 192 196 197 191 188 181 163 153 165 173 167 163 186 230 258 305 345 359 2 360 1 2 1 359 357 356 355 354 352 349 347 346 346 346 345 343 339
210 165 171 179 180 184 186 186 185 188 192 190 181 173 181 186 184 185 187 187 190 192 189 188 185 185 192 197 191 174 171 179 183 186 191 195 201 212 220 224 227 229 234 236 239 244 238 219 206 205 203 194 189 188 178 167 169 178 183 197 224 254 279 292 302 324 337 340 342 345 347 347 348 349 348 347 345 342 342 342 342 342 341 338 334
157 146 164 184 185 183 186 195 200 204 213 218 217 205 191 192 193 193 195 196 199 203 204 204 202 199 197 199 198 184 174 177 180 180 183 191 199 208 213 218 224 230 234 236 237 246 248 234 223 217 207 200 193 185 183 187 193 199 206 221 238 259 279 283 278 289 305 315 322 328 332 336 339 341 340 338 336 337 338 339 339 339 337 335 331
150 145 151 166 179 181 183 193 200 204 214 217 217 212 199 197 199 196 196 198 202 208 214 214 211 207 202 200 199 195 188 187 189 191 198 209 218 224 225 226 228 230 234 234 233 239 244 238 234 225 209 203 196 188 190 201 213 223 231 238 249 265 274 269 263 271 287 299 309 314 319 326 330 330 329 328 330 333 334 335 335 335 333 331 328
150 143 137 131 140 166 186 197 202 204 209 209 206 204 200 198 198 193 191 191 194 201 209 211 208 203 200 201 203 202 202 206 212 219 228 237 241 240 237 236 232 224 224 227 230 233 236 237 238 225 208 201 198 199 205 215 226 234 240 248 259 267 265 260 262 272 283 292 299 304 309 316 319 319 321 324 326 328 328 329 329 329 329 327 323
151 144 137 125 115 119 165 198 205 202 199 197 197 197 195 193 190 188 184 183 186 191 195 197 196 194 195 202 209 212 216 222 228 235 241 244 245 244 241 234 224 213 214 223 231 233 232 232 232 228 220 210 206 210 218 226 235 242 247 254 261 264 263 263 265 271 278 284 289 295 302 308 311 313 316 318 319 321 322 323 323 324 323 322 320
157 154 153 143 129 119 123 161 185 190 190 191 191 189 188 187 186 186 184 183 187 188 187 188 189 188 189 198 209 218 224 230 235 240 243 246 247 247 244 237 226 218 218 224 230 233 235 231 223 227 232 223 217 219 225 230 236 241 246 252 258 261 262 264 268 270 274 279 284 290 297 302 305 308 311 313 315 317 318 318 319 320 319 317 315
165 171 178 176 173 169 162 151 157 172 185 194 195 191 187 187 190 193 192 190 190 190 190 192 195 197 197 200 207 215 223 230 236 241 246 251 252 249 246 243 240 236 234 233 231 232 237 237 231 229 229 227 226 226 228 230 235 240 245 251 257 262 263 264 266 268 272 277 281 286 290 295 299 303 308 311 313 313 314 316 318 318 317 314 311
180 196 203 201 200 201 205 207 206 199 190 200 208 207 201 198 199 202 204 204 203 202 201 202 205 209 212 215 218 223 230 235 240 245 250 254 256 252 248 246 245 244 242 242 239 235 234 235 235 233 229 229 230 231 234 237 240 244 248 249 254 259 262 263 263 266 270 274 278 282 287 292 296 302 307 309 310 311 313 316 318 317 315 313 311
198 210 212 208 209 215 221 224 229 237 240 227 225 225 221 217 217 217 218 220 220 221 222 221 220 221 224 228 231 234 240 244 247 251 253 255 256 255 253 251 250 249 246 244 244 242 239 238 239 238 236 236 236 236 238 242 244 248 248 248 250 254 256 258 260 264 269 273 276 281 286 291 297 303 306 307 309 311 314 316 317 315 313 311 310
211 217 221 222 220 221 226 230 235 243 246 241 236 239 237 233 234 234 234 235 236 238 239 239 238 238 239 242 245 246 248 251 254 255 257 258 258 257 256 256 255 253 250 247 246 246 246 246 244 241 242 244 243 241 240 242 245 249 250 250 250 251 253 256 258 262 267 272 276 280 287 293 298 302 304 306 309 312 314 315 314 312 309 308 307
222 223 227 229 226 225 227 232 238 244 248 251 250 252 253 250 248 246 245 245 245 247 249 250 249 249 250 252 254 255 257 259 260 260 260 261 260 259 259 258 256 252 249 249 248 248 249 250 250 249 250 249 246 243 245 246 247 249 252 254 254 252 253 254 256 260 267 272 276 282 289 294 298 302 305 308 310 311 312 312 310 308 307 308 309
223 225 228 226 224 226 229 231 236 241 246 251 254 256 258 259 259 259 256 254 253 254 257 258 258 257 257 257 258 259 261 263 264 264 264 264 263 262 260 260 258 256 253 251 251 250 250 250 251 253 255 255 252 249 251 253 252 252 254 255 255 255 254 254 257 261 268 273 278 283 288 293 297 303 307 308 309 309 308 307 306 307 309 312 314
213 219 222 221 221 225 228 229 232 235 238 243 246 251 254 257 259 261 261 260 259 259 259 260 262 263 263 264 264 264 264 265 266 266 265 265 264 263 263 262 260 259 257 257 257 256 255 254 253 253 254 255 257 258 259 259 258 258 257 255 253 252 253 256 260 265 271 277 282 287 292 296 300 304 306 307 306 305 305 305 307 309 312 314 316
211 216 220 222 223 225 227 228 229 230 232 236 240 245 250 253 256 257 258 259 258 258 258 259 259 260 261 263 264 265 265 265 266 266 266 267 266 265 264 263 262 261 261 260 262 262 263 263 262 261 260 258 258 261 262 261 260 258 254 252 251 251 254 258 264 269 275 280 286 292 295 297 301 303 304 304 305 304 305 307 309 311 313 315 318
214 218 222 226 229 231 233 234 234 234 237 241 244 247 250 254 257 258 258 257 256 255 255 256 257 258 259 259 260 262 264 264 265 266 267 267 265 263 262 261 263 264 263 262 262 262 263 267 268 268 266 263 259 259 259 258 255 251 248 249 251 255 258 262 268 273 277 282 288 292 295 298 302 304 305 306 306 305 306 308 310 312 314 316 319
213 219 225 230 235 238 241 243 244 245 246 248 249 250 252 254 256 259 260 260 258 257 255 255 256 257 258 258 259 260 261 262 264 265 265 265 265 266 266 263 262 264 263 262 262 261 261 265 268 267 265 262 258 254 252 249 246 246 249 252 255 258 261 264 270 274 279 284 289 293 297 302 305 307 309 308 306 305 305 306 309 312 315 317 321
217 223 228 234 239 242 244 246 248 249 249 248 249 249 249 251 252 254 257 260 261 261 261 260 260 260 260 260 260 261 261 260 259 261 263 265 266 269 269 264 262 264 266 264 262 261 259 259 261 262 262 261 257 250 246 243 244 248 252 255 255 258 262 267 271 276 282 288 292 297 302 306 308 310 309 307 305 304 305 307 311 315 317 319 323
226 230 232 235 239 242 245 246 248 249 248 247 247 247 247 249 250 251 252 254 257 259 262 264 266 266 265 264 263 263 263 263 262 262 265 267 267 266 264 262 261 265 267 263 260 259 257 255 257 260 261 258 252 245 241 240 243 247 250 253 256 261 266 271 275 280 287 293 298 303 307 308 308 309 309 309 309 308 308 312 317 319 320 322 324